Location: *
(41.4785°N, 81.6794°W)
Time: 04:12:24
(UTC+00:00)

Daily predictions for brighter satellites

Satellite Brightness Start Highest point End
(mag) Time Altitude Azimuth Time Altitude Azimuth Time Altitude Azimuth
Shenzhou-11 Module 4.0 00:00:00 10° W 00:01:17 24° WNW 00:01:17 24° WNW
Cosmos 1980 4.4 00:05:55 10° SW 00:11:22 50° WNW 00:14:59 21° N
Aureole 1 Rocket 4.3 00:10:45 10° SSW 00:12:04 23° SW 00:12:04 23° SW
Cosmos 2297 4.2 00:10:31 10° NNW 00:14:42 42° NNE 00:14:42 42° NNE
CSL-04 Rocket 4.0 00:17:56 10° S 00:23:09 63° WSW 00:28:25 10° NNW
DMSP B5D1-3 4.4 00:23:18 71° N 00:23:52 85° WNW 00:28:59 10° SSW
Cosmos 1900 4.4 00:19:46 10° NW 00:24:39 73° WSW 00:24:46 72° SW
Cosmos 1943 Rocket 4.4 00:20:30 10° N 00:20:47 11° N 00:20:47 11° N
COSMO-SKYMED 1 4.4 00:22:46 13° NNW 00:26:01 29° WNW 00:29:46 10° SW
YAOGAN 1 3.8 00:29:44 10° SSW 00:33:47 39° W 00:37:52 10° NNW
Centaur D-1A AC-31 3.8 00:40:53 10° SW 00:45:08 27° SSE 00:46:12 27° SSE
Cosmos 1553 Rocket 4.1 00:46:00 10° N 00:56:44 22° S 00:58:43 10° S
SL-16 R/B 3.4 01:06:24 10° SW 01:10:32 40° W 01:10:32 40° W
USA 234 4.5 08:52:28 10° NE 08:56:01 35° ENE 08:56:01 35° ENE
Lacrosse 5 4.2 09:11:58 19° ESE 09:11:58 19° ESE 09:13:30 10° ESE
CZ-4C R/B 4.1 09:09:40 32° NNE 09:10:55 34° NE 09:18:06 10° ESE
Cosmos 2297 Rocket 4.4 09:29:53 16° NNE 09:29:53 16° NNE 09:30:57 10° NNE
Cosmos 2227 Rocket 4.2 09:33:27 18° NNE 09:33:27 18° NNE 09:34:52 10° NNE
BREEZE-M DEB (TANK) 4.4 09:48:38 38° SW 09:53:44 82° SSE 09:58:21 10° ENE
Cosmos 1371 Rocket 4.5 09:59:13 16° S 10:03:20 59° ESE 10:08:28 10° NNE
GEOS 3 Rocket 3.5 09:59:50 10° SE 10:04:55 78° NE 10:04:55 78° NE
SL-16 R/B 2.1 10:05:44 80° N 10:06:02 85° ENE 10:11:43 10° SSE
Cosmos 407 Rocket 4.1 10:06:59 37° N 10:08:49 56° ENE 10:14:04 10° SE
Cosmos 2082 4.3 10:15:58 41° N 10:15:58 41° N 10:19:51 10° NNE
Meteor 1-27 Rocket 3.8 10:11:03 27° N 10:14:26 82° E 10:20:21 10° SSE
Cosmos 2237 Rocket 4.3 10:23:07 12° SSW 10:23:07 12° SSW 10:23:28 10° SSW
ATLAS 5 CENTAUR R/B 3.6 10:24:04 18° N 10:24:04 18° N 10:25:38 10° NNE
STARLINK-54 4.5 10:26:24 39° S 10:26:24 39° S 10:29:13 10° SE
Cosmos 1484 Rocket 2.9 10:24:31 10° NNE 10:28:29 73° E 10:32:21 10° S
STARLINK-34 4.4 10:29:33 39° S 10:29:33 39° S 10:32:27 10° SSE
PSLV R/B 4.0 10:25:54 10° NNE 10:30:00 74° ESE 10:34:07 10° S
Cosmos 2034 Rocket 3.9 10:24:24 10° S 10:30:42 81° W 10:37:06 10° N
STARLINK-81 4.2 10:32:26 44° S 10:32:26 44° S 10:35:34 10° SSE
SKYMED 2 3.8 10:28:33 10° SSE 10:32:51 67° ENE 10:35:20 25° N
STARLINK-24 4.4 10:34:18 39° S 10:34:18 39° S 10:37:20 10° SSE
STARLINK-77 4.2 10:35:38 43° SSW 10:35:38 43° SSW 10:38:52 10° SSE
STARLINK-25 4.2 10:37:14 42° SSW 10:37:14 42° SSW 10:40:29 10° SSE
STARLINK-71 4.4 10:39:08 37° SSW 10:39:08 37° SSW 10:42:14 10° SSE
Meteor 2-11 Rocket 4.3 10:33:09 10° SSW 10:39:11 69° W 10:45:18 10° N
STARLINK-79 4.2 10:40:24 41° SSW 10:40:24 41° SSW 10:43:44 10° SSE
SJ-12 4.1 10:37:08 10° NNE 10:41:16 73° ESE 10:45:21 10° S
STARLINK-78 4.2 10:42:01 40° SSW 10:42:01 40° SSW 10:45:22 10° SSE
USA 234 3.8 10:35:46 10° NE 10:41:43 39° NNW 10:43:22 34° WNW
STARLINK-57 4.3 10:43:44 37° SSW 10:43:44 37° SSW 10:47:02 10° SSE
STARLINK-49 4.3 10:45:11 38° SSW 10:45:11 38° SSW 10:48:37 10° SSE
CZ-4B DEB 4.4 10:40:20 10° NNE 10:45:53 75° ESE 10:51:25 10° S
STARLINK-27 4.3 10:46:46 37° SW 10:46:46 37° SW 10:50:14 10° SSE
Cosmos 1624 Rocket 3.9 10:42:25 10° SSW 10:47:41 65° WNW 10:53:00 10° NNE
STARLINK-74 4.3 10:48:22 36° SW 10:48:22 36° SW 10:51:51 10° SSE
Cosmos 1812 4.5 10:51:29 19° SSW 10:51:29 19° SSW 10:52:48 10° SSW
PSLV R/B 4.2 10:50:00 33° ESE 10:50:00 33° ESE 10:51:40 10° E
STARLINK-39 4.4 10:50:00 35° SW 10:50:00 35° SW 10:53:30 10° SSE
Lacrosse 5 2.7 10:51:12 30° WSW 10:51:23 30° SW 10:55:45 10° S
STARLINK 4.4 10:51:35 33° SW 10:51:35 33° SW 10:55:07 10° SSE
Cosmos 2056 Rocket 3.4 10:47:42 10° SSW 10:52:44 60° WNW 10:57:48 10° NNE
Aureole 1 Rocket 4.5 10:53:55 32° W 10:54:28 32° WSW 11:00:22 10° SSW
STARLINK-21 4.5 10:54:48 31° SW 10:54:48 31° SW 10:58:22 10° SSE
Cosmos 2263 Rocket 2.7 10:51:14 10° S 10:56:43 61° ESE 11:02:13 10° NNE
Cosmos 1933 Rocket 3.6 10:54:13 10° SSW 10:58:25 50° W 11:02:40 10° N
Cosmos 1190 Rocket 4.0 10:55:47 25° NNW 10:58:44 61° WSW 11:03:53 10° S
Cosmos 676 Rocket 4.0 10:55:14 13° NNW 10:59:55 82° ENE 11:05:12 10° SSE
CZ-4C R/B 3.0 10:54:53 22° NW 11:00:03 69° WSW 11:08:19 10° SSE
Cosmos 1092 Rocket 3.9 10:54:07 10° N 11:00:19 88° W 11:06:27 10° S
Okean 1-7 3.2 10:58:24 10° N 11:02:49 73° E 11:07:12 10° SSE
Cosmos 2227 4.2 10:57:49 10° SSW 11:03:35 87° WNW 11:09:23 10° NNE
Geosat 4.3 11:00:33 10° S 11:05:22 46° WSW 11:07:58 25° NW
ALOS 2.1 11:00:44 10° N 11:05:25 77° WNW 11:10:05 10° SSW
Cosmos 2297 Rocket 4.0 11:11:44 13° NNW 11:11:44 13° NNW 11:13:12 10° NNW
Cosmos 1954 Rocket 3.9 11:06:20 11° NNW 11:11:24 85° WSW 11:16:41 10° SSE
Cosmos 2227 Rocket 4.0 11:15:19 14° NNW 11:15:19 14° NNW 11:17:09 10° NNW
Cosmos 1420 Rocket 3.9 11:09:13 10° SSW 11:14:26 83° WNW 11:19:39 10° NNE
Starlink Launch 2 leader 4.1 11:16:35 20° N 11:17:17 23° NNE 11:19:20 10° E
Meteor 1-25 Rocket 4.1 11:12:30 10° SSW 11:18:03 72° W 11:23:43 10° N
Cosmos 1461 2.9 11:16:42 19° NW 11:19:43 85° WSW 11:24:07 10° SSE
CZ-4B R/B 3.2 11:14:30 10° NNE 11:20:07 85° WNW 11:25:46 10° SSW
COSMO-SKYMED 1 3.2 11:16:55 10° SSW 11:20:54 35° W 11:23:51 16° NW
Starlink Launch 2 trailer 4.0 11:20:07 20° N 11:20:59 25° NNE 11:23:05 10° E
Okean O Rocket 1.5 11:21:11 10° N 11:25:31 64° WNW 11:29:52 10° SSW
PAYLOAD B 4.2 11:20:18 10° N 11:25:43 57° WNW 11:31:06 10° SSW
FENGYUN 3A 3.7 11:21:20 10° N 11:26:36 55° WNW 11:31:50 10° SSW
Helios 1A Rocket 2.9 11:25:37 10° N 11:29:36 58° WNW 11:33:32 10° SSW
Okean 1 3.2 11:27:11 10° N 11:31:10 77° W 11:35:07 10° S
Cosmos 2084 Rocket 3.6 11:29:15 17° NW 11:32:35 58° WSW 11:36:53 10° SSE
USA 116 4.4 11:30:17 10° S 11:34:14 42° W 11:38:41 10° NNW
Radarsat Rocket 4.3 11:28:53 10° NNE 11:35:03 85° ESE 11:41:57 10° SSW
Cosmos 1943 3.1 11:32:10 10° NNW 11:37:48 81° WSW 11:43:24 10° SSE
SWAS 4.4 11:33:34 10° SSW 11:37:52 84° WNW 11:42:13 10° NNE
Cosmos 1703 Rocket 4.1 11:33:51 10° NNW 11:37:58 37° W 11:42:00 10° SSW
Cosmos 1452 Rocket 3.5 11:34:17 10° SSW 11:39:30 64° WNW 11:44:46 10° NNE
Meteor 1-19 Rocket 4.2 11:34:02 10° N 11:39:33 89° ENE 11:45:09 10° S
NOAA 6 4.2 11:37:52 10° N 11:42:48 50° WNW 11:47:44 10° SW
STARLINK 1044 3.8 11:41:28 13° NW 11:43:43 35° NNE 11:46:24 10° E
Cosmos 1733 Rocket 3.8 11:42:36 10° S 11:46:48 55° E 11:51:02 10° NNE
Cosmos 1850 Rocket 4.1 11:42:51 10° NNW 11:48:15 84° ENE 11:53:35 10° SSE
SL-16 R/B 3.9 11:47:41 11° W 11:49:18 13° W 11:51:37 10° WSW
STARLINK 1050 3.9 11:49:10 11° NW 11:52:20 42° NNE 11:55:35 10° ESE
Cosmos 1869 Rocket 4.1 11:49:32 10° SW 11:53:30 35° WNW 11:57:30 10° N
STARLINK 1055 3.9 11:51:48 10° NW 11:55:04 44° NNE 11:58:19 10° ESE
FALCON 9 DEB 2.4 11:53:14 12° NW 11:55:19 59° NE 11:57:37 10° ESE
